Location: Ingoldesthorpe
(52.8667°N, 0.5167°E)
Time: 05:56:26
(UTC+00:00)

Spot 4 - Pass Details

Date: 19 May 2025
Orbit: 699 x 715 km, 98.3° (Epoch: 18 June)

Event Time Altitude Azimuth Distance (km) Brightness Sun altitude
Exits shadow 22:56:47 28° 159° (SSE) 1,317 4.6 -16.1°
Maximum altitude 22:59:21 84° 73° (ENE) 715 3.8 -16.2°
Drops below altitude 10° 23:04:09 10° 346° (NNW) 2,188 7.7 -16.3°
Sets 23:06:25 0° 346° (NNW) 3,114 9.0 -16.4°
